Regional Weather Roundup
Issued by NWS

Home | Current Version | Previous Version | Graphics & Text | Print | Product List | Glossary Off
Versions: 1 2 3 4 5 6 7 8 9 10 11 12 13 14 15 16 17 18 19 20 21 22 23 24 25 26 27 28 29 30 31 32 33 34 35 36 37 38 39 40 41 42 43 44 45 46 47 48 49 50

000
ASUS43 KMPX 200110
RWRMN
WEATHER ROUNDUP FOR MINNESOTA
NATIONAL WEATHER SERVICE TWIN CITIES/CHANHASSEN MN
800 PM CDT TUE AUG 19 2014


NOTE: "FAIR" INDICATES FEW OR NO CLOUDS BELOW 12,000 FEET WITH NO
SIGNIFICANT WEATHER AND/OR OBSTRUCTIONS TO VISIBILITY. N/A MEANS
CURRENT SKY AND/OR WEATHER CONDITIONS ARE NOT AVAILABLE.

MNZ060>063-068>070-200200-
   Twin Cities Metro

CITY           SKY/WX    TMP DP  RH WIND       PRES   REMARKS
TWIN CITIES    PTCLDY    74  64  71 CALM      29.75R
ST PAUL        MOCLDY    71  67  87 S3        29.75S
CRYSTAL        PTCLDY    74  65  73 CALM      29.74R
BLAINE         PTCLDY    72  70  94 CALM      29.75R
LAKEVILLE      CLOUDY    72  66  83 CALM      29.75S
EDEN PRAIRIE   CLOUDY    75  65  70 CALM      29.74R
SOUTH ST PAUL  PTCLDY    72  65  79 CALM      29.75S
LAKE ELMO      FAIR      70  66  88 CALM      29.76S
$$
MNZ001>005-007-008-013>017-022>024-027-028-200200-
   Northwest Minnesota

CITY           SKY/WX    TMP DP  RH WIND       PRES   REMARKS
BEMIDJI        CLEAR     71  61  71 CALM      29.78S
HALLOCK        CLEAR     75  66  73 CALM      29.73S
ROSEAU         CLEAR     72  63  73 E8        29.77S
WARROAD        CLEAR     72  63  73 E6        29.78S
THIEF RVR FALL CLEAR     73  61  64 CALM      29.76S
CROOKSTON      CLEAR     77  63  61 CALM      29.75S
FOSSTON        CLEAR     72  63  73 CALM      29.77S
DETROIT LAKES  CLEAR     73  63  68 CALM      29.79R
MOORHEAD       CLEAR     77  70  78 E3        29.75S
PARK RAPIDS    CLEAR     74  59  59 N6        29.77S
MAHNOMEN       FAIR      72  65  79 CALM      29.76S
$$
MNZ006-009>011-018-025>026-200200-
   North Central Minnesota

CITY           SKY/WX    TMP DP  RH WIND       PRES   REMARKS
BAUDETTE       CLEAR     69  62  78 NE3       29.78R
FLAG ISLAND    CLEAR     72  61  68 CALM      29.77R
INTL FALLS     CLEAR     67  60  78 NE3       29.78S
WASKISH        PTCLDY    70  63  78 CALM      29.78R
BIG FORK       PTCLDY    64  63  94 CALM      29.79S
LONGVILLE      CLEAR     66  64  94 CALM      29.77S
GRAND RAPIDS   CLEAR     68  59  73 N3        29.79R
CRANE LAKE     MOCLDY    63  61  94 CALM      29.80S
ORR            CLOUDY    64  59  82 CALM      29.77S
COOK           CLOUDY    64  61  88 CALM      29.80R
WALKER         FAIR      68  63  84 CALM      29.77F
$$
MNZ012-019>021-037-200200-
   Northeast Minnesota

CITY           SKY/WX    TMP DP  RH WIND       PRES   REMARKS
DULUTH         MOCLDY    66  59  78 NE7       29.78R
ELY            CLOUDY    63  59  88 CALM      29.80R
HIBBING        MOCLDY    68  60  75 NE3       29.79R
EVELETH        CLOUDY    64  59  82 CALM      29.80R
DULUTH HARBOR  CLOUDY    63  61  94 N5        29.77S
TWO HARBORS    CLOUDY    64  57  77 CALM      29.76S
SILVER BAY     PTCLDY    61  61 100 CALM      29.77R
GRAND MARAIS     N/A     60  59  96 CALM      29.77R
G MARAIS ARPRT CLOUDY    57  55  94 CALM      29.81S
$$
MNZ029>031-032-039>041-046>048-054>057-064-200200-
   West Central Minnesota

CITY           SKY/WX    TMP DP  RH WIND       PRES   REMARKS
FERGUS FALLS   CLEAR     75  61  60 CALM      29.75S
WHEATON        CLEAR     73  63  68 NE3       29.77S
MORRIS         CLEAR     75  66  73 CALM      29.76R
ALEXANDRIA     CLEAR     74  63  68 N3        29.79R
ELBOW LAKE     FAIR      74  64  70 CALM      29.76S
WADENA         CLEAR     72  64  78 CALM      29.77R
GLENWOOD       CLEAR     73  64  73 MISG      29.79S
APPLETON       CLEAR     77  66  69 CALM      29.76R
BENSON         CLEAR     73  66  78 CALM      29.76S
ORTONVILLE     CLEAR     77  64  65 CALM      29.76S
MADISON        CLEAR     79  70  73 CALM      29.76S
WILLMAR        FAIR      75  66  73 CALM      29.78S
$$
MNZ033>034-036-042>043-049>051-058-059-200200-
   Central Minnesota

CITY           SKY/WX    TMP DP  RH WIND       PRES   REMARKS
ST CLOUD       CLEAR     75  66  73 CALM      29.75R
SAUK CENTRE    FAIR      74  62  67 W5        29.78R
PAYNESVILLE    CLEAR     72  62  70 CALM      29.77S
AITKIN         MOCLDY    72  64  78 N3        29.76S
PINE RIVER     MOCLDY    72  63  73 CALM      29.81R
BRAINERD       CLEAR     71  64  78 NE3       29.77R
STAPLES        PTCLDY    73  63  68 CALM      29.77R
LONG PRAIRIE   FAIR      73  61  64 CALM      29.78R
LITTLE FALLS   CLEAR     72  61  68 CALM      29.77R
LITCHFIELD     CLEAR     77  64  65 CALM      29.77S
BUFFALO        MOCLDY    76  63  62 CALM      29.76S
MAPLE LAKE     MOCLDY    74  68  81 CALM      29.76S
$$
MNZ037-044-045-052-053-200200-
   East Central Minnesota

CITY           SKY/WX    TMP DP  RH WIND       PRES   REMARKS
PRINCETON      PTCLDY    73  66  78 CALM      29.76S
MORA           CLEAR     70  63  78 CALM      29.77S
CAMBRIDGE      CLEAR     73  63  68 CALM      29.74S
RUSH CITY      PTCLDY    71  64  80 CALM      29.75S
MOOSE LAKE     CLOUDY    70  61  73 NE3       29.75R
HINCKLEY       CLOUDY    68  64  88 N6        29.76R
CLOQUET        CLOUDY    64  61  88 E3        29.78R
MCGREGOR       MOCLDY    70  61  73 N3        29.77R
$$
MNZ071>073-080-081-089-090-097-098-200200-
   Southwest Minnesota

CITY           SKY/WX    TMP DP  RH WIND       PRES   REMARKS
MONTEVIDEO     CLEAR     75  68  78 CALM      29.77S
GRANITE FALLS  CLEAR     77  68  73 CALM      29.78R
CANBY          CLEAR     76  68  75 CALM      29.78R
MARSHALL       CLEAR     77  64  65 NE5       29.77S
REDWOOD FALLS  CLEAR     78  66  66 N3        29.76S
OLIVIA         CLEAR     77  64  65 CALM      29.76S
PIPESTONE      CLEAR     75  66  73 CALM      29.81R
WINDOM         CLEAR     75  66  73 CALM      29.79S
WORTHINGTON    CLEAR     77  18  10 SW5       29.82R
JACKSON        PTCLDY    75  64  69 CALM      29.80R
TRACY          CLEAR     77  67  70 CALM      29.79R
SLAYTON        CLEAR     76  67  71 CALM      29.81R
$$
MNZ065>067-074>077-082>085-091>093-200200-
   South Central Minnesota

CITY           SKY/WX    TMP DP  RH WIND       PRES   REMARKS
MANKATO        CLEAR     75  63  64 W5        29.76S
NEW ULM        CLEAR     75  66  73 NW3       29.77R
ST JAMES       CLEAR     77  66  69 CALM      29.78S
FAIRMONT       CLEAR     77  64  65 N3        29.78S
GLENCOE        CLEAR     76  62  61 W5        29.76R
FARIBAULT      CLEAR     73  66  78 CALM      29.77R
OWATONNA       CLEAR     72  66  83 CALM      29.77S
WASECA         CLEAR     72  61  68 N5        29.79R
ALBERT LEA     CLEAR     75  66  73 CALM      29.78R
$$
MNZ078>079-086>088-094>096-200200-
   Southeast Minnesota

CITY           SKY/WX    TMP DP  RH WIND       PRES   REMARKS
ROCHESTER      LGT RAIN  71  64  78 W5        29.79R
RED WING       MOCLDY    73  64  73 CALM      29.74R
STANTON        MOCLDY    74  65  75 SW5       29.75R
DODGE CENTER   MOCLDY    70  66  88 CALM      29.78F
WINONA         PTCLDY    73  63  68 CALM      29.75R HAZE
AUSTIN         CLEAR     73  64  73 CALM      29.77S
PRESTON        MOCLDY    71  66  85 W5        29.78S
$$
ABBREVIATIONS USED IN REMARKS
   TC - TEMPERATURES IN CELSIUS
  WCI - WIND CHILL INDEX
   HX - HEAT INDEX
  VSB - VISIBILITY
$$


USA.gov is the U.S. government's official web portal to all federal, state and local government web resources and services.